,,,PA_Meas_PMT16A,,PR_Meas_QMR101_102,,RH_Meas_QMH101,,SR_Meas_QMS101,,TA_Meas_QMH101,,GenWind,,GenWind,
date,time,status,PA,status,PR,status,RH,status,SR,status,TA,status,DirAvg,status,SpdAvg,
2008-05-31, 00:00:05,VALID,1009.77,VALID,0,VALID,95.1313,VALID,0,VALID,23.2848,VALID,100,VALID,0.139062,
2008-05-31, 00:01:05,VALID,1009.75,VALID,0,VALID,95.0855,VALID,0,VALID,23.2654,VALID,100,VALID,0,
2008-05-31, 00:02:05,VALID,1009.69,VALID,0,VALID,95.0703,VALID,0,VALID,23.2654,VALID,100,VALID,0.00195313,
2008-05-31, 00:03:05,VALID,1009.67,VALID,0,VALID,95.0626,VALID,0,VALID,23.2654,VALID,100,VALID,0.282813,
2008-05-31, 00:04:05,VALID,1009.61,VALID,0,VALID,95.0398,VALID,0,VALID,23.2459,VALID,64,VALID,0.375391,
2008-05-31, 00:05:05,VALID,1009.62,VALID,0,VALID,94.9711,VALID,0,VALID,23.2264,VALID,63,VALID,0.330859,
2008-05-31, 00:06:05,VALID,1009.59,VALID,0,VALID,94.9635,VALID,0,VALID,23.2069,VALID,63,VALID,0.247656,
2008-05-31, 00:07:05,VALID,1009.61,VALID,0,VALID,94.933,VALID,0,VALID,23.1679,VALID,63,VALID,0.199609,
2008-05-31, 00:08:05,VALID,1009.59,VALID,0,VALID,94.9483,VALID,0,VALID,23.1679,VALID,63,VALID,0.268359,
2008-05-31, 00:09:05,VALID,1009.55,VALID,0,VALID,94.9254,VALID,0,VALID,23.1679,VALID,63,VALID,0.344531,
2008-05-31, 00:10:05,VALID,1009.53,VALID,0,VALID,94.9254,VALID,0,VALID,23.129,VALID,63,VALID,0.392188,
2008-05-31, 00:11:05,VALID,1009.49,VALID,0,VALID,94.9254,VALID,0,VALID,23.1502,VALID,63,VALID,0.188672,
2008-05-31, 00:12:05,VALID,1009.45,VALID,0,VALID,94.9406,VALID,0,VALID,23.1095,VALID,63,VALID,0.35,
2008-05-31, 00:13:05,VALID,1009.44,VALID,0,VALID,94.994,VALID,0,VALID,23.1095,VALID,63,VALID,0.337891,
2008-05-31, 00:14:05,VALID,1009.42,VALID,0,VALID,95.0169,VALID,0,VALID,23.09,VALID,63,VALID,0.368359,
2008-05-31, 00:15:05,VALID,1009.42,VALID,0,VALID,95.0398,VALID,0.105969,VALID,23.09,VALID,63,VALID,0.294922,
2008-05-31, 00:16:05,VALID,1009.4,VALID,0,VALID,95.055,VALID,0.105969,VALID,23.09,VALID,63,VALID,0.293359,
2008-05-31, 00:17:05,VALID,1009.41,VALID,0,VALID,95.0474,VALID,0.105969,VALID,23.0688,VALID,63,VALID,0.103516,
2008-05-31, 00:18:05,VALID,1009.41,VALID,0,VALID,95.055,VALID,0,VALID,23.09,VALID,63,VALID,0.291797,
2008-05-31, 00:19:05,VALID,1009.36,VALID,0,VALID,95.0321,VALID,0,VALID,23.0705,VALID,63,VALID,0.467969,
2008-05-31, 00:20:05,VALID,1009.33,VALID,0,VALID,95.0321,VALID,0,VALID,23.0918,VALID,52,VALID,0.533594,
2008-05-31, 00:21:05,VALID,1009.32,VALID,0,VALID,95.0474,VALID,0,VALID,23.0705,VALID,54,VALID,0.486328,
2008-05-31, 00:22:05,VALID,1009.3,VALID,0,VALID,95.0321,VALID,0,VALID,23.0511,VALID,53,VALID,0.436328,
2008-05-31, 00:23:05,VALID,1009.28,VALID,0,VALID,95.0169,VALID,0.105969,VALID,23.0511,VALID,41,VALID,0.537891,
2008-05-31, 00:24:05,VALID,1009.27,VALID,0,VALID,95.0093,VALID,0,VALID,23.0511,VALID,41,VALID,0.452734,
2008-05-31, 00:25:05,VALID,1009.29,VALID,0,VALID,94.9635,VALID,0,VALID,23.0316,VALID,41,VALID,0.563281,
2008-05-31, 00:26:05,VALID,1009.26,VALID,0,VALID,95.0245,VALID,0,VALID,23.0316,VALID,41,VALID,0.415234,
2008-05-31, 00:27:05,VALID,1009.25,VALID,0,VALID,95.0016,VALID,0,VALID,23.0121,VALID,52,VALID,0.519141,
2008-05-31, 00:28:05,VALID,1009.24,VALID,0,VALID,95.0245,VALID,0,VALID,23.0121,VALID,79,VALID,0.453516,
2008-05-31, 00:29:05,VALID,1009.26,VALID,0,VALID,95.1008,VALID,0,VALID,23.0121,VALID,88,VALID,0.745703,
2008-05-31, 00:30:05,VALID,1009.25,VALID,0,VALID,95.1313,VALID,0.105969,VALID,23.0316,VALID,102,VALID,0.809766,
2008-05-31, 00:31:05,VALID,1009.25,VALID,0,VALID,95.1465,VALID,0,VALID,23.0316,VALID,88,VALID,0.892969,
2008-05-31, 00:32:05,VALID,1009.23,VALID,0,VALID,95.1389,VALID,0,VALID,23.0316,VALID,92,VALID,1.14961,
2008-05-31, 00:33:05,VALID,1009.24,VALID,0,VALID,95.1542,VALID,0,VALID,23.0705,VALID,89,VALID,1.1418,
2008-05-31, 00:34:05,VALID,1009.25,VALID,0,VALID,95.1542,VALID,0,VALID,23.0511,VALID,90,VALID,0.875391,
2008-05-31, 00:35:05,VALID,1009.21,VALID,0,VALID,95.1542,VALID,0,VALID,23.0705,VALID,75,VALID,0.71875,
2008-05-31, 00:36:05,VALID,1009.19,VALID,0,VALID,95.1389,VALID,0,VALID,23.0705,VALID,75,VALID,0.780859,
2008-05-31, 00:37:05,VALID,1009.16,VALID,0,VALID,95.116,VALID,0.105969,VALID,23.0705,VALID,67,VALID,0.427344,
2008-05-31, 00:38:05,VALID,1009.14,VALID,0,VALID,95.0779,VALID,0,VALID,23.0511,VALID,41,VALID,0.600391,
2008-05-31, 00:39:05,VALID,1009.12,VALID,0,VALID,95.0626,VALID,0.105969,VALID,23.0511,VALID,53,VALID,0.609766,
2008-05-31, 00:40:05,VALID,1009.13,VALID,0,VALID,95.0474,VALID,0,VALID,23.0511,VALID,49,VALID,0.467578,
2008-05-31, 00:41:05,VALID,1009.1,VALID,0,VALID,95.0703,VALID,0,VALID,23.0121,VALID,33,VALID,0.294922,
2008-05-31, 00:42:05,VALID,1009.11,VALID,0,VALID,95.0703,VALID,0,VALID,22.9926,VALID,33,VALID,0.502344,
2008-05-31, 00:43:05,VALID,1009.1,VALID,0,VALID,95.0474,VALID,0,VALID,22.9731,VALID,13,VALID,0.611719,
2008-05-31, 00:44:05,VALID,1009.08,VALID,0,VALID,95.0398,VALID,0,VALID,22.9536,VALID,13,VALID,0.559766,
2008-05-31, 00:45:05,VALID,1009.03,VALID,0,VALID,95.0474,VALID,0,VALID,22.9342,VALID,13,VALID,0.445703,
2008-05-31, 00:46:05,VALID,1009,VALID,0,VALID,95.0779,VALID,0,VALID,22.9359,VALID,8,VALID,0.389062,
2008-05-31, 00:47:05,VALID,1008.95,VALID,0,VALID,95.1084,VALID,0.105969,VALID,22.9342,VALID,347,VALID,0.593359,
2008-05-31, 00:48:05,VALID,1008.95,VALID,0,VALID,95.1389,VALID,0,VALID,22.8952,VALID,3,VALID,0.532812,
2008-05-31, 00:49:05,VALID,1008.94,VALID,0,VALID,95.1694,VALID,0.105969,VALID,22.8757,VALID,355,VALID,0.182031,
2008-05-31, 00:50:05,VALID,1008.95,VALID,0,VALID,95.177,VALID,0,VALID,22.8562,VALID,356,VALID,0.451172,
2008-05-31, 00:51:05,VALID,1008.91,VALID,0,VALID,95.2152,VALID,0,VALID,22.8562,VALID,2,VALID,0.325781,
2008-05-31, 00:52:05,VALID,1008.91,VALID,0,VALID,95.2304,VALID,0,VALID,22.8368,VALID,2,VALID,0.30625,
2008-05-31, 00:53:05,VALID,1008.91,VALID,0,VALID,95.2533,VALID,0.105969,VALID,22.8368,VALID,22,VALID,0.476172,
2008-05-31, 00:54:05,VALID,1008.88,VALID,0,VALID,95.2609,VALID,0.105969,VALID,22.7978,VALID,22,VALID,0.350391,
2008-05-31, 00:55:05,VALID,1008.85,VALID,0,VALID,95.2685,VALID,0.105969,VALID,22.7783,VALID,22,VALID,0.107422,
2008-05-31, 00:56:05,VALID,1008.85,VALID,0,VALID,95.299,VALID,0.105969,VALID,22.8173,VALID,22,VALID,0,
2008-05-31, 00:57:05,VALID,1008.81,VALID,0,VALID,95.3143,VALID,0,VALID,22.7588,VALID,22,VALID,0.00898437,
2008-05-31, 00:58:05,VALID,1008.81,VALID,0,VALID,95.3677,VALID,0,VALID,22.7588,VALID,22,VALID,0.100781,
2008-05-31, 00:59:05,VALID,1008.79,VALID,0,VALID,95.3753,VALID,0.105969,VALID,22.7783,VALID,22,VALID,0,
2008-05-31, 01:00:05,VALID,1008.79,VALID,0,VALID,95.3982,VALID,0,VALID,22.7783,VALID,23,VALID,0,
2008-05-31, 01:01:05,VALID,1008.81,VALID,0,VALID,95.4287,VALID,0,VALID,22.7783,VALID,23,VALID,0,
2008-05-31, 01:02:05,VALID,1008.81,VALID,0,VALID,95.4592,VALID,0,VALID,22.7783,VALID,30,VALID,0.321875,
2008-05-31, 01:03:05,VALID,1008.81,VALID,0,VALID,95.4439,VALID,0,VALID,22.7783,VALID,67,VALID,0.284375,
2008-05-31, 01:04:05,VALID,1008.86,VALID,0,VALID,95.4744,VALID,0,VALID,22.7588,VALID,67,VALID,0.533984,
2008-05-31, 01:05:05,VALID,1008.89,VALID,0,VALID,95.4897,VALID,0.105969,VALID,22.7783,VALID,71,VALID,0.630078,
2008-05-31, 01:06:05,VALID,1008.87,VALID,0,VALID,95.5049,VALID,0,VALID,22.7783,VALID,71,VALID,0.723828,
2008-05-31, 01:07:05,VALID,1008.87,VALID,0,VALID,95.5431,VALID,0.105969,VALID,22.7978,VALID,80,VALID,0.535937,
2008-05-31, 01:08:05,VALID,1008.87,VALID,0,VALID,95.5583,VALID,0,VALID,22.7978,VALID,75,VALID,0.505078,
2008-05-31, 01:09:05,VALID,1008.88,VALID,0,VALID,95.5888,VALID,0.105969,VALID,22.7961,VALID,84,VALID,0.438281,
2008-05-31, 01:10:05,VALID,1008.89,VALID,0,VALID,95.6041,VALID,0,VALID,22.8173,VALID,84,VALID,0.399219,
2008-05-31, 01:11:05,VALID,1008.9,VALID,0,VALID,95.6117,VALID,0,VALID,22.7978,VALID,84,VALID,0.260547,
2008-05-31, 01:12:05,VALID,1008.89,VALID,0,VALID,95.6193,VALID,0,VALID,22.8173,VALID,83,VALID,0.396094,
2008-05-31, 01:13:05,VALID,1008.86,VALID,0,VALID,95.6193,VALID,0,VALID,22.7978,VALID,82,VALID,0.354688,
2008-05-31, 01:14:05,VALID,1008.84,VALID,0,VALID,95.5888,VALID,0,VALID,22.7978,VALID,82,VALID,0.238281,
2008-05-31, 01:15:05,VALID,1008.84,VALID,0,VALID,95.5964,VALID,0,VALID,22.7978,VALID,75,VALID,0.40625,
2008-05-31, 01:16:05,VALID,1008.8,VALID,0,VALID,95.5888,VALID,0,VALID,22.7783,VALID,66,VALID,0.295312,
2008-05-31, 01:17:05,VALID,1008.77,VALID,0,VALID,95.6041,VALID,0,VALID,22.819,VALID,76,VALID,0.569922,
2008-05-31, 01:18:05,VALID,1008.74,VALID,0,VALID,95.6193,VALID,0,VALID,22.8173,VALID,73,VALID,0.325391,
2008-05-31, 01:19:05,VALID,1008.77,VALID,0,VALID,95.6117,VALID,0,VALID,22.7978,VALID,50,VALID,0.477734,
2008-05-31, 01:20:05,VALID,1008.73,VALID,0,VALID,95.5736,VALID,0,VALID,22.7783,VALID,50,VALID,0.368359,
2008-05-31, 01:21:05,VALID,1008.71,VALID,0,VALID,95.6041,VALID,0,VALID,22.7995,VALID,50,VALID,0.443359,
2008-05-31, 01:22:05,VALID,1008.69,VALID,0,VALID,95.6117,VALID,0,VALID,22.7978,VALID,57,VALID,0.6,
2008-05-31, 01:23:05,VALID,1008.66,VALID,0,VALID,95.5888,VALID,0,VALID,22.7783,VALID,57,VALID,0.296875,
2008-05-31, 01:24:05,VALID,1008.63,VALID,0,VALID,95.5964,VALID,0,VALID,22.7588,VALID,57,VALID,0.0910156,
2008-05-31, 01:25:05,VALID,1008.6,VALID,0,VALID,95.6117,VALID,0,VALID,22.7588,VALID,57,VALID,0,
2008-05-31, 01:26:05,VALID,1008.6,VALID,0,VALID,95.6041,VALID,0,VALID,22.7588,VALID,57,VALID,0.137109,
2008-05-31, 01:27:05,VALID,1008.58,VALID,0,VALID,95.6193,VALID,0,VALID,22.7394,VALID,57,VALID,0.259375,
2008-05-31, 01:28:05,VALID,1008.56,VALID,0,VALID,95.6117,VALID,0,VALID,22.7588,VALID,56,VALID,0.269922,
2008-05-31, 01:29:05,VALID,1008.58,VALID,0,VALID,95.6269,VALID,0,VALID,22.7394,VALID,12,VALID,0.222266,
2008-05-31, 01:30:05,VALID,1008.57,VALID,0,VALID,95.6041,VALID,0,VALID,22.7394,VALID,12,VALID,0.294922,
2008-05-31, 01:31:05,VALID,1008.59,VALID,0,VALID,95.6193,VALID,0,VALID,22.7199,VALID,13,VALID,0.257422,
2008-05-31, 01:32:05,VALID,1008.57,VALID,0,VALID,95.6117,VALID,0,VALID,22.7394,VALID,13,VALID,0.0421875,
2008-05-31, 01:33:05,VALID,1008.57,VALID,0,VALID,95.6422,VALID,0,VALID,22.7394,VALID,13,VALID,0.0953125,
2008-05-31, 01:34:05,VALID,1008.6,VALID,0,VALID,95.6498,VALID,0,VALID,22.7199,VALID,13,VALID,0.116797,
2008-05-31, 01:35:05,VALID,1008.6,VALID,0,VALID,95.6422,VALID,0,VALID,22.7394,VALID,54,VALID,0.291797,
2008-05-31, 01:36:05,VALID,1008.6,VALID,0,VALID,95.6574,VALID,0,VALID,22.7394,VALID,72,VALID,0.280859,
2008-05-31, 01:37:05,VALID,1008.58,VALID,0,VALID,95.6651,VALID,0,VALID,22.7394,VALID,72,VALID,0.422266,
2008-05-31, 01:38:05,VALID,1008.58,VALID,0,VALID,95.6956,VALID,0,VALID,22.7199,VALID,72,VALID,0.474609,
2008-05-31, 01:39:05,VALID,1008.6,VALID,0,VALID,95.7108,VALID,0,VALID,22.7606,VALID,72,VALID,0.525,
2008-05-31, 01:40:05,VALID,1008.64,VALID,0,VALID,95.7108,VALID,0,VALID,22.7588,VALID,72,VALID,0.113672,
2008-05-31, 01:41:05,VALID,1008.64,VALID,0,VALID,95.7337,VALID,0,VALID,22.7783,VALID,72,VALID,0.00273437,
2008-05-31, 01:42:05,VALID,1008.62,VALID,0,VALID,95.7413,VALID,0,VALID,22.7995,VALID,72,VALID,0.10625,
2008-05-31, 01:43:05,VALID,1008.63,VALID,0,VALID,95.7566,VALID,0,VALID,22.7978,VALID,75,VALID,0.257813,
2008-05-31, 01:44:05,VALID,1008.64,VALID,0,VALID,95.7642,VALID,0,VALID,22.7978,VALID,108,VALID,0.688672,
2008-05-31, 01:45:05,VALID,1008.61,VALID,0,VALID,95.7871,VALID,0,VALID,22.8173,VALID,100,VALID,0.553906,
2008-05-31, 01:46:05,VALID,1008.62,VALID,0,VALID,95.7718,VALID,0,VALID,22.8173,VALID,96,VALID,0.80625,
2008-05-31, 01:47:05,VALID,1008.63,VALID,0,VALID,95.7642,VALID,0,VALID,22.8173,VALID,107,VALID,0.63125,
2008-05-31, 01:48:05,VALID,1008.6,VALID,0,VALID,95.7795,VALID,0,VALID,22.8173,VALID,103,VALID,0.680078,
2008-05-31, 01:49:05,VALID,1008.6,VALID,0,VALID,95.7871,VALID,0,VALID,22.819,VALID,101,VALID,0.676953,
2008-05-31, 01:50:05,VALID,1008.59,VALID,0,VALID,95.8023,VALID,0,VALID,22.8368,VALID,101,VALID,0.433984,
2008-05-31, 01:51:05,VALID,1008.61,VALID,0,VALID,95.81,VALID,0,VALID,22.8562,VALID,109,VALID,0.678125,
2008-05-31, 01:52:05,VALID,1008.58,VALID,0,VALID,95.81,VALID,0,VALID,22.858,VALID,136,VALID,0.623438,
2008-05-31, 01:53:05,VALID,1008.64,VALID,0,VALID,95.8328,VALID,0,VALID,22.8173,VALID,135,VALID,0.316016,
2008-05-31, 01:54:05,VALID,1008.65,VALID,0,VALID,95.8252,VALID,0,VALID,22.8385,VALID,133,VALID,0.458594,
2008-05-31, 01:55:05,VALID,1008.65,VALID,0,VALID,95.8328,VALID,0,VALID,22.8173,VALID,132,VALID,0.455078,
2008-05-31, 01:56:05,VALID,1008.64,VALID,0,VALID,95.8557,VALID,0,VALID,22.8562,VALID,114,VALID,0.392188,
2008-05-31, 01:57:05,VALID,1008.65,VALID,0,VALID,95.7947,VALID,0,VALID,22.858,VALID,61,VALID,0.448047,
2008-05-31, 01:58:05,VALID,1008.63,VALID,0,VALID,95.7871,VALID,0,VALID,22.7978,VALID,58,VALID,0.373047,
2008-05-31, 01:59:05,VALID,1008.62,VALID,0,VALID,95.8176,VALID,0,VALID,22.7978,VALID,57,VALID,0.386719,
2008-05-31, 02:00:04,VALID,1008.61,VALID,0,VALID,95.7947,VALID,0,VALID,22.7978,VALID,68,VALID,0.655469,
2008-05-31, 02:01:04,VALID,1008.56,VALID,0,VALID,95.8176,VALID,0,VALID,22.7995,VALID,69,VALID,0.351172,
2008-05-31, 02:02:04,VALID,1008.55,VALID,0,VALID,95.8252,VALID,0,VALID,22.7783,VALID,68,VALID,0.253516,
2008-05-31, 02:03:04,VALID,1008.52,VALID,0,VALID,95.8328,VALID,0,VALID,22.819,VALID,57,VALID,0.354688,
2008-05-31, 02:04:04,VALID,1008.53,VALID,0,VALID,95.8328,VALID,0,VALID,22.8173,VALID,42,VALID,0.191016,
2008-05-31, 02:05:04,VALID,1008.54,VALID,0,VALID,95.8633,VALID,0,VALID,22.7783,VALID,42,VALID,0.382422,
2008-05-31, 02:06:04,VALID,1008.53,VALID,0,VALID,95.8481,VALID,0,VALID,22.7783,VALID,42,VALID,0.0984375,
2008-05-31, 02:07:04,VALID,1008.54,VALID,0,VALID,95.8481,VALID,0,VALID,22.7783,VALID,42,VALID,0,
2008-05-31, 02:08:04,VALID,1008.55,VALID,0,VALID,95.8481,VALID,0,VALID,22.7995,VALID,352,VALID,0.492188,
2008-05-31, 02:09:04,VALID,1008.55,VALID,0,VALID,95.8328,VALID,0,VALID,22.78,VALID,352,VALID,0.134766,
2008-05-31, 02:10:04,VALID,1008.54,VALID,0,VALID,95.8405,VALID,0,VALID,22.7606,VALID,352,VALID,0.354688,
2008-05-31, 02:11:04,VALID,1008.56,VALID,0,VALID,95.871,VALID,0,VALID,22.7606,VALID,352,VALID,0.2625,
2008-05-31, 02:12:04,VALID,1008.53,VALID,0,VALID,95.8633,VALID,0,VALID,22.7394,VALID,352,VALID,0.367578,
2008-05-31, 02:13:04,VALID,1008.52,VALID,0,VALID,95.8405,VALID,0,VALID,22.7411,VALID,352,VALID,0.392969,
2008-05-31, 02:14:04,VALID,1008.5,VALID,0,VALID,95.8557,VALID,0,VALID,22.7199,VALID,354,VALID,0.322656,
2008-05-31, 02:15:04,VALID,1008.51,VALID,0,VALID,95.8633,VALID,0,VALID,22.7411,VALID,355,VALID,0.267969,
2008-05-31, 02:16:04,VALID,1008.48,VALID,0,VALID,95.871,VALID,0,VALID,22.7004,VALID,355,VALID,0.298828,
2008-05-31, 02:17:04,VALID,1008.47,VALID,0,VALID,95.871,VALID,0,VALID,22.7411,VALID,355,VALID,0.319531,
2008-05-31, 02:18:04,VALID,1008.47,VALID,0,VALID,95.8786,VALID,0,VALID,22.7021,VALID,355,VALID,0.189453,
2008-05-31, 02:19:04,VALID,1008.46,VALID,0,VALID,95.871,VALID,0,VALID,22.6809,VALID,355,VALID,0.0679687,
2008-05-31, 02:20:04,VALID,1008.48,VALID,0,VALID,95.8939,VALID,0,VALID,22.6809,VALID,339,VALID,0.232031,
2008-05-31, 02:21:04,VALID,1008.47,VALID,0,VALID,95.9091,VALID,0,VALID,22.7216,VALID,333,VALID,0.319141,
2008-05-31, 02:22:04,VALID,1008.47,VALID,0,VALID,95.932,VALID,0,VALID,22.7004,VALID,333,VALID,0.123828,
2008-05-31, 02:23:04,VALID,1008.48,VALID,0,VALID,95.932,VALID,0,VALID,22.7199,VALID,333,VALID,0.102344,
2008-05-31, 02:24:04,VALID,1008.47,VALID,0,VALID,95.9472,VALID,0,VALID,22.7606,VALID,335,VALID,0.266016,
2008-05-31, 02:25:04,VALID,1008.46,VALID,0,VALID,95.9167,VALID,0,VALID,22.7021,VALID,354,VALID,0.235156,
2008-05-31, 02:26:04,VALID,1008.46,VALID,0,VALID,95.9167,VALID,0,VALID,22.6614,VALID,56,VALID,0.549609,
2008-05-31, 02:27:04,VALID,1008.45,VALID,0,VALID,95.932,VALID,0,VALID,22.6614,VALID,72,VALID,0.346484,
2008-05-31, 02:28:04,VALID,1008.48,VALID,0,VALID,95.932,VALID,0,VALID,22.6614,VALID,107,VALID,0.455078,
2008-05-31, 02:29:04,VALID,1008.5,VALID,0,VALID,95.9625,VALID,0,VALID,22.6809,VALID,129,VALID,0.431641,
2008-05-31, 02:30:04,VALID,1008.52,VALID,0,VALID,95.9625,VALID,0,VALID,22.7021,VALID,133,VALID,0.179297,
2008-05-31, 02:31:04,VALID,1008.52,VALID,0,VALID,95.9701,VALID,0,VALID,22.7021,VALID,133,VALID,0.248047,
2008-05-31, 02:32:04,VALID,1008.52,VALID,0,VALID,95.9701,VALID,0,VALID,22.7216,VALID,132,VALID,0.172266,
2008-05-31, 02:33:04,VALID,1008.52,VALID,0,VALID,95.9777,VALID,0,VALID,22.7216,VALID,24,VALID,0.493359,
2008-05-31, 02:34:04,VALID,1008.51,VALID,0,VALID,95.9701,VALID,0,VALID,22.6809,VALID,24,VALID,0.214844,
2008-05-31, 02:35:04,VALID,1008.52,VALID,0,VALID,95.9777,VALID,0,VALID,22.6809,VALID,24,VALID,0,
2008-05-31, 02:36:04,VALID,1008.5,VALID,0,VALID,95.9854,VALID,0,VALID,22.6809,VALID,345,VALID,0.343359,
2008-05-31, 02:37:04,VALID,1008.52,VALID,0,VALID,95.9472,VALID,0,VALID,22.7021,VALID,340,VALID,0.0046875,
2008-05-31, 02:38:04,VALID,1008.53,VALID,0,VALID,95.9701,VALID,0,VALID,22.6809,VALID,340,VALID,0.0472656,
2008-05-31, 02:39:04,VALID,1008.52,VALID,0,VALID,95.993,VALID,0,VALID,22.6614,VALID,340,VALID,0,
2008-05-31, 02:40:04,VALID,1008.51,VALID,0,VALID,95.9854,VALID,0,VALID,22.7021,VALID,340,VALID,0,
2008-05-31, 02:41:04,VALID,1008.53,VALID,0,VALID,96.0006,VALID,0.105969,VALID,22.7004,VALID,340,VALID,0,
2008-05-31, 02:42:04,VALID,1008.53,VALID,0,VALID,96.0082,VALID,0,VALID,22.7021,VALID,340,VALID,0,
2008-05-31, 02:43:04,VALID,1008.53,VALID,0,VALID,96.0082,VALID,0,VALID,22.6826,VALID,340,VALID,0,
2008-05-31, 02:44:04,VALID,1008.57,VALID,0,VALID,96.0159,VALID,0,VALID,22.6809,VALID,340,VALID,0.0113281,
2008-05-31, 02:45:04,VALID,1008.55,VALID,0,VALID,96.0006,VALID,0,VALID,22.7004,VALID,340,VALID,0,
2008-05-31, 02:46:04,VALID,1008.56,VALID,0,VALID,96.0159,VALID,0,VALID,22.7004,VALID,340,VALID,0.135937,
2008-05-31, 02:47:04,VALID,1008.56,VALID,0,VALID,96.0159,VALID,0,VALID,22.7411,VALID,340,VALID,0.117969,
2008-05-31, 02:48:04,VALID,1008.58,VALID,0,VALID,96.0387,VALID,0,VALID,22.78,VALID,340,VALID,0.00664063,
2008-05-31, 02:49:04,VALID,1008.56,VALID,0,VALID,96.0159,VALID,0,VALID,22.78,VALID,340,VALID,0,
2008-05-31, 02:50:04,VALID,1008.54,VALID,0,VALID,96.0159,VALID,0,VALID,22.7606,VALID,340,VALID,0.103906,
2008-05-31, 02:51:04,VALID,1008.52,VALID,0,VALID,96.0311,VALID,0,VALID,22.7588,VALID,340,VALID,0.314844,
2008-05-31, 02:52:04,VALID,1008.52,VALID,0,VALID,96.0311,VALID,0.105969,VALID,22.7394,VALID,340,VALID,0.285937,
2008-05-31, 02:53:04,VALID,1008.5,VALID,0,VALID,96.0159,VALID,0,VALID,22.7588,VALID,340,VALID,0.145313,
2008-05-31, 02:54:04,VALID,1008.49,VALID,0,VALID,96.0387,VALID,0,VALID,22.7606,VALID,340,VALID,0.269922,
2008-05-31, 02:55:04,VALID,1008.52,VALID,0,VALID,96.054,VALID,0,VALID,22.78,VALID,335,VALID,0.190625,
2008-05-31, 02:56:04,VALID,1008.52,VALID,0,VALID,96.0159,VALID,0,VALID,22.7783,VALID,330,VALID,0.256641,
2008-05-31, 02:57:04,VALID,1008.51,VALID,0,VALID,96.0311,VALID,0,VALID,22.7588,VALID,330,VALID,0.170312,
2008-05-31, 02:58:04,VALID,1008.5,VALID,0,VALID,96.0387,VALID,0,VALID,22.7783,VALID,330,VALID,0.175781,
2008-05-31, 02:59:04,VALID,1008.5,VALID,0,VALID,96.0311,VALID,0,VALID,22.78,VALID,330,VALID,0.0726563,
2008-05-31, 03:00:04,VALID,1008.46,VALID,0,VALID,96.0387,VALID,0.105969,VALID,22.7394,VALID,330,VALID,0.00820312,
2008-05-31, 03:01:04,VALID,1008.48,VALID,0,VALID,96.0235,VALID,0,VALID,22.7588,VALID,330,VALID,0.203125,
2008-05-31, 03:02:04,VALID,1008.44,VALID,0,VALID,96.0082,VALID,0,VALID,22.7588,VALID,330,VALID,0.0464844,
2008-05-31, 03:03:04,VALID,1008.43,VALID,0,VALID,96.0006,VALID,0,VALID,22.7783,VALID,330,VALID,0,
2008-05-31, 03:04:04,VALID,1008.43,VALID,0,VALID,96.0082,VALID,0,VALID,22.7588,VALID,330,VALID,0.13125,
2008-05-31, 03:05:04,VALID,1008.4,VALID,0,VALID,96.0311,VALID,0,VALID,22.7394,VALID,330,VALID,0.0363281,
2008-05-31, 03:06:04,VALID,1008.39,VALID,0,VALID,95.993,VALID,0,VALID,22.7588,VALID,330,VALID,0.362891,
2008-05-31, 03:07:04,VALID,1008.37,VALID,0,VALID,96.0082,VALID,0.105969,VALID,22.7394,VALID,330,VALID,0.242578,
2008-05-31, 03:08:04,VALID,1008.36,VALID,0,VALID,96.0006,VALID,0,VALID,22.7199,VALID,341,VALID,0.364453,
2008-05-31, 03:09:04,VALID,1008.37,VALID,0,VALID,95.9854,VALID,0,VALID,22.7606,VALID,344,VALID,0.00546875,
2008-05-31, 03:10:04,VALID,1008.36,VALID,0,VALID,95.9854,VALID,0,VALID,22.7199,VALID,344,VALID,0.0265625,
2008-05-31, 03:11:04,VALID,1008.37,VALID,0,VALID,96.0006,VALID,0,VALID,22.7216,VALID,344,VALID,0.242969,
2008-05-31, 03:12:04,VALID,1008.34,VALID,0,VALID,95.993,VALID,0,VALID,22.7004,VALID,65,VALID,0.321094,
2008-05-31, 03:13:04,VALID,1008.36,VALID,0,VALID,95.993,VALID,0.105969,VALID,22.7199,VALID,75,VALID,0.487891,
2008-05-31, 03:14:04,VALID,1008.39,VALID,0,VALID,95.9854,VALID,0.105969,VALID,22.7199,VALID,75,VALID,0.126172,
2008-05-31, 03:15:04,VALID,1008.38,VALID,0,VALID,96.0006,VALID,0.105969,VALID,22.6987,VALID,75,VALID,0.145313,
2008-05-31, 03:16:04,VALID,1008.4,VALID,0,VALID,95.9777,VALID,0.105969,VALID,22.6792,VALID,75,VALID,0.0210938,
2008-05-31, 03:17:04,VALID,1008.41,VALID,0,VALID,95.993,VALID,0.105969,VALID,22.7004,VALID,75,VALID,0.0300781,
2008-05-31, 03:18:04,VALID,1008.41,VALID,0,VALID,96.0006,VALID,0.105969,VALID,22.7004,VALID,75,VALID,0,
2008-05-31, 03:19:04,VALID,1008.4,VALID,0,VALID,95.9701,VALID,0,VALID,22.7004,VALID,39,VALID,0.160547,
2008-05-31, 03:20:04,VALID,1008.4,VALID,0,VALID,95.993,VALID,0,VALID,22.6792,VALID,1,VALID,0.235547,
2008-05-31, 03:21:04,VALID,1008.4,VALID,0,VALID,95.9854,VALID,0,VALID,22.7004,VALID,355,VALID,0.308594,
2008-05-31, 03:22:04,VALID,1008.37,VALID,0,VALID,95.9625,VALID,0.105969,VALID,22.6987,VALID,355,VALID,0.258203,
2008-05-31, 03:23:04,VALID,1008.4,VALID,0,VALID,95.993,VALID,0.105969,VALID,22.6987,VALID,355,VALID,0.0582031,
2008-05-31, 03:24:04,VALID,1008.38,VALID,0,VALID,95.9625,VALID,0.105969,VALID,22.6597,VALID,355,VALID,0.14375,
2008-05-31, 03:25:04,VALID,1008.38,VALID,0,VALID,95.9625,VALID,0.105969,VALID,22.6597,VALID,355,VALID,0,
2008-05-31, 03:26:04,VALID,1008.37,VALID,0,VALID,95.9854,VALID,0.105969,VALID,22.6809,VALID,355,VALID,0,
2008-05-31, 03:27:04,VALID,1008.36,VALID,0,VALID,95.9625,VALID,0.105969,VALID,22.6597,VALID,355,VALID,0,
2008-05-31, 03:28:04,VALID,1008.37,VALID,0,VALID,95.9701,VALID,0,VALID,22.6614,VALID,355,VALID,0,
2008-05-31, 03:29:04,VALID,1008.34,VALID,0,VALID,95.9549,VALID,0,VALID,22.6826,VALID,355,VALID,0,
2008-05-31, 03:30:04,VALID,1008.37,VALID,0,VALID,95.9701,VALID,0,VALID,22.6614,VALID,355,VALID,0,
2008-05-31, 03:31:04,VALID,1008.37,VALID,0,VALID,95.993,VALID,0,VALID,22.7004,VALID,355,VALID,0.104297,
2008-05-31, 03:32:04,VALID,1008.34,VALID,0,VALID,95.9854,VALID,0,VALID,22.6809,VALID,355,VALID,0.0550781,
2008-05-31, 03:33:04,VALID,1008.36,VALID,0,VALID,95.993,VALID,0,VALID,22.7606,VALID,355,VALID,0.0792969,
2008-05-31, 03:34:04,VALID,1008.36,VALID,0,VALID,95.9777,VALID,0,VALID,22.7216,VALID,355,VALID,0.283594,
2008-05-31, 03:35:04,VALID,1008.33,VALID,0,VALID,95.9854,VALID,0,VALID,22.7004,VALID,355,VALID,0.228906,
2008-05-31, 03:36:04,VALID,1008.34,VALID,0,VALID,95.9701,VALID,0,VALID,22.6809,VALID,355,VALID,0.300391,
2008-05-31, 03:37:04,VALID,1008.34,VALID,0,VALID,95.9549,VALID,0,VALID,22.7004,VALID,355,VALID,0.201562,
2008-05-31, 03:38:04,VALID,1008.34,VALID,0,VALID,95.9701,VALID,0,VALID,22.6809,VALID,355,VALID,0.248047,
2008-05-31, 03:39:04,VALID,1008.32,VALID,0,VALID,95.9625,VALID,0,VALID,22.6809,VALID,355,VALID,0.297656,
2008-05-31, 03:40:04,VALID,1008.37,VALID,0,VALID,95.9701,VALID,0,VALID,22.7411,VALID,355,VALID,0.266406,
2008-05-31, 03:41:04,VALID,1008.37,VALID,0,VALID,95.9701,VALID,0,VALID,22.6614,VALID,355,VALID,0.146484,
2008-05-31, 03:42:04,VALID,1008.38,VALID,0,VALID,95.9701,VALID,0,VALID,22.6437,VALID,355,VALID,0,
2008-05-31, 03:43:04,VALID,1008.38,VALID,0,VALID,95.9701,VALID,0,VALID,22.6614,VALID,355,VALID,0,
2008-05-31, 03:44:04,VALID,1008.37,VALID,0,VALID,95.9625,VALID,0,VALID,22.6826,VALID,355,VALID,0,
2008-05-31, 03:45:04,VALID,1008.37,VALID,0,VALID,96.0082,VALID,0,VALID,22.6632,VALID,355,VALID,0.348047,